Brooklyn Center, MN

10:22 PM CDT on August 28, 2016 (GMT -0500)
Crystal

Weather History for KMIC - December, 2012

Change the Weather History Date:

Monday, December 17, 2012

  Actual Average Record
Temperature  
Mean Temperature 22 °F -  
Max Temperature 24 °F 26 °F 43 °F (1997)
Min Temperature 19 °F 11 °F -7 °F (2000)
Degree Days  
Heating Degree Days 44    
Moisture  
Dew Point 19 °F    
Average Humidity 87    
Maximum Humidity 92    
Minimum Humidity 80    
Precipitation  
Precipitation 0.00 in - - ()
Sea Level Pressure  
Sea Level Pressure 29.77 in    
Wind  
Wind Speed 3 mph (North)    
Max Wind Speed 6 mph    
Max Gust Speed -    
Visibility 8 miles    
Events      
Averages and records for this station are not official NWS values.
T = Trace of Precipitation, MM = Missing Value Source: NWS Daily Summary

Daily Weather History Graph

Daily Weather History Graph

Search for Another Location

Airport or City:

Trip Planner

Search our weather history database for the weather conditions in past years. The results will help you decide how hot, cold, wet, or windy it might be!

Date:

Astronomy

Dec. 17, 2012 Rise Set
Actual Time 7:46 AM CST 4:32 PM CST
Civil Twilight 7:12 AM CST 5:06 PM CST
Nautical Twilight 6:35 AM CST 5:44 PM CST
Astronomical Twilight 5:59 AM CST 6:19 PM CST
Moon 10:44 AM CST (12/17) 10:07 PM CST (12/17)
Length of Visible Light 9h 53m
Length of Day
8h 46m
Waxing Crescent, 25% of the Moon is Illuminated
Dec 17
Waxing Crescent
Dec 19
First Quarter
Dec 28
Full
Jan 4
Last Quarter
Jan 11
New

Hourly Weather History & Observations

Time (CST) Temp. Windchill Dew Point Humidity Pressure Visibility Wind Dir Wind Speed Gust Speed Precip Events Conditions
12:53 AM 19.9 °F 12.1 °F 17.1 °F 89% 29.83 in 10.0 mi NNW 5.8 mph - N/A   Overcast
1:53 AM 21.0 °F 16.2 °F 17.1 °F 85% 29.82 in 10.0 mi North 3.5 mph - N/A   Overcast
2:53 AM 21.0 °F 16.2 °F 17.1 °F 85% 29.81 in 10.0 mi NNW 3.5 mph - N/A   Overcast
3:53 AM 21.0 °F 16.2 °F 18.0 °F 88% 29.81 in 10.0 mi West 3.5 mph - N/A   Overcast
4:13 AM 21.2 °F 16.4 °F 17.6 °F 86% 29.77 in 10.0 mi West 3.5 mph - N/A   Overcast
4:24 AM 21.2 °F - 17.6 °F 86% 29.77 in 10.0 mi Calm Calm - N/A   Overcast
4:40 AM 21.2 °F 16.4 °F 17.6 °F 86% 29.76 in 10.0 mi NW 3.5 mph - N/A   Overcast
4:53 AM 21.0 °F 14.6 °F 18.0 °F 88% 29.81 in 10.0 mi NNW 4.6 mph - N/A   Overcast
5:53 AM 19.9 °F 12.1 °F 18.0 °F 92% 29.80 in 10.0 mi NNW 5.8 mph - N/A   Overcast
6:53 AM 19.9 °F 14.9 °F 18.0 °F 92% 29.81 in 9.0 mi NNE 3.5 mph - N/A   Overcast
7:53 AM 19.9 °F - 18.0 °F 92% 29.81 in 9.0 mi Calm Calm - N/A   Overcast
8:53 AM 19.9 °F - 18.0 °F 92% 29.81 in 6.0 mi Calm Calm - N/A   Overcast
9:53 AM 21.9 °F - 18.0 °F 85% 29.80 in 7.0 mi Calm Calm - N/A   Overcast
10:53 AM 21.9 °F - 18.0 °F 85% 29.80 in 7.0 mi Calm Calm - N/A   Overcast
11:53 AM 23.0 °F - 19.0 °F 85% 29.76 in 6.0 mi Calm Calm - N/A   Overcast
12:53 PM 23.0 °F - 19.0 °F 85% 29.75 in 6.0 mi Calm Calm - N/A   Overcast
1:43 PM 23.0 °F - 19.4 °F 86% 29.69 in 6.0 mi Calm Calm - N/A   Overcast
1:53 PM 23.0 °F - 19.0 °F 85% 29.74 in 6.0 mi Calm Calm - N/A   Overcast
2:53 PM 23.0 °F 18.4 °F 19.0 °F 85% 29.73 in 6.0 mi NNE 3.5 mph - N/A   Overcast
3:53 PM 23.0 °F 18.4 °F 19.0 °F 85% 29.73 in 6.0 mi NE 3.5 mph - N/A   Overcast
6:53 PM 23.0 °F 18.4 °F 19.0 °F 85% 29.75 in 6.0 mi ENE 3.5 mph - N/A   Overcast
7:53 PM 23.0 °F 18.4 °F 19.0 °F 85% 29.74 in 6.0 mi ENE 3.5 mph - N/A   Overcast
8:53 PM 23.0 °F - 19.9 °F 88% 29.74 in 6.0 mi Calm Calm - N/A   Overcast
9:53 PM 23.0 °F - 19.9 °F 88% 29.74 in 6.0 mi Calm Calm - N/A   Overcast
10:46 PM 24.8 °F 20.5 °F 19.4 °F 80% 29.69 in 6.0 mi SE 3.5 mph - N/A   Haze
10:53 PM 24.1 °F 18.2 °F 19.9 °F 84% 29.74 in 6.0 mi SSE 4.6 mph - N/A   Overcast
11:53 PM 24.1 °F - 19.9 °F 84% 29.73 in 5.0 mi Calm Calm - N/A   Overcast